This demonstration page uses our WeatherBlox Daily Observations layout. Learn more.

Left ArrowRight Arrow

Hourly Observations for December 8, 2022

Temp ( °F °C ) Dew Point ( °F °C ) Humidity (%) Winds ( mph kmh ) Pressure ( in mb ) Visibility ( mi km ) Precip ( " mm )
12:13 am 00:13 Cloudy with Mist and Fog 60 15.6 59 15 96 96 W 3 6 30.14 1021 2 3 0.00 0.00
12:53 am 00:53 Cloudy with Mist and Fog 59 15 59 15 100 100 Calm 30.11 1020 2 3 0.00 0.00
1:18 am 01:18 Cloudy with Mist and Fog 60 15.6 59 15 96 96 Calm 30.12 1020 3 5 0.00 0.00
1:27 am 01:27 Cloudy with Mist and Fog 60 15.6 59 15 96 96 Calm 30.12 1020 3 5 0.00 0.00
1:53 am 01:53 Mostly Cloudy with Mist and Fog 60 15.6 59 15 96 96 Calm 30.10 1019 4 6 0.00 0.00
2:53 am 02:53 Mostly Cloudy with Mist and Fog 60 15.6 59 15 96 96 Calm 30.11 1020 5 8 0.00 0.00
3:08 am 03:08 Mostly Cloudy with Mist and Fog 60 15.6 59 15 96 96 WNW 5 7 30.12 1020 5 8 0.00 0.00
3:53 am 03:53 Cloudy with Mist and Fog 61 16.1 60 15.6 97 97 NNW 3 6 30.11 1020 5 8 0.00 0.00
4:53 am 04:53 Cloudy 59 15 58 14.4 96 96 NW 8 13 30.12 1020 7 11 0.00 0.00
5:15 am 05:15 Cloudy 59 15 58 14.4 96 96 NNW 7 11 30.14 1021 8 13 0.00 0.00
5:53 am 05:53 Cloudy 59 15 57 13.9 93 93 WNW 3 6 30.13 1020 8 13 0.00 0.00
6:42 am 06:42 Cloudy 58 14.4 56 13.3 93 93 NW 10 17 30.15 1021 8 13 0.00 0.00
6:53 am 06:53 Cloudy 58 14.4 56 13.3 93 93 NNW 8 13 30.14 1021 7 11 0.00 0.00
7:11 am 07:11 Cloudy 58 14.4 56 13.3 93 93 N 5 7 30.15 1021 7 11 0.00 0.00
7:53 am 07:53 Cloudy with Mist and Fog 59 15 56 13.3 90 90 Calm 30.14 1021 6 10 0.00 0.00
8:33 am 08:33 Cloudy 60 15.6 56 13.3 86 86 NW 3 6 30.16 1021 7 11 0.00 0.00
8:53 am 08:53 Cloudy 61 16.1 56 13.3 83 83 Calm 30.15 1021 7 11 0.00 0.00
9:47 am 09:47 Cloudy 64 18 57 14 77 77 Calm 30.15 1021 10 16 0.00 0.00
9:53 am 09:53 Cloudy 65 18.3 58 14.4 78 78 Calm 30.15 1021 10 16 0.00 0.00
10:10 am 10:10 Partly Cloudy 67 19.4 59 15 76 76 Calm 30.16 1021 7 11 0.00 0.00
10:46 am 10:46 Mostly Cloudy 68 20 60 15.6 76 76 Calm 30.15 1021 7 11 0.00 0.00
10:53 am 10:53 Mostly Cloudy 68 20 60 15.6 76 76 WNW 5 7 30.15 1021 7 11 0.00 0.00
11:10 am 11:10 Cloudy with Haze 69 20.6 60 15.6 73 73 VRB 5 7 30.15 1021 6 10 0.00 0.00
11:37 am 11:37 Cloudy with Haze 68 20 61 16.1 78 78 NW 6 9 30.13 1020 6 10 0.00 0.00
12:00 pm 12:00 Cloudy 69 20.6 61 16.1 75 75 WNW 3 6 30.12 1020 7 11 0.00 0.00
12:53 pm 12:53 Mostly Cloudy 71 21.7 62 16.7 73 73 NW 6 9 30.09 1019 10 16 0.00 0.00
1:53 pm 13:53 Mostly Cloudy 72 22.2 62 16.7 71 71 Calm 30.06 1018 8 13 0.00 0.00
2:53 pm 14:53 Mostly Cloudy 72 22.2 63 17.2 73 73 Calm 30.06 1018 10 16 0.00 0.00
3:53 pm 15:53 Cloudy 72 22.2 64 17.8 76 76 Calm 30.06 1018 10 16 0.01 0.13
4:53 pm 16:53 Cloudy with Light Rain 72 22.2 65 18.3 79 79 Calm 30.07 1018 10 16 0.01 0.13
5:53 pm 17:53 Cloudy 71 21.7 66 18.9 84 84 Calm 30.07 1018 10 16 0.01 0.13
6:53 pm 18:53 Cloudy 71 21.7 66 18.9 84 84 ENE 3 6 30.07 1018 10 16 0.00 0.00
7:35 pm 19:35 Cloudy with Heavy Rain 70 21.1 68 20 93 93 SSE 5 7 30.07 1018 2 3 0.01 0.25
7:53 pm 19:53 Cloudy with Heavy Rain 69 20.6 68 20 96 96 WNW 3 6 30.08 1019 3 4 0.15 3.81
8:05 pm 20:05 Cloudy with Light Rain 69 20.6 68 20 96 96 Calm 30.09 1019 2 2 0.21 5.33
8:10 pm 20:10 Cloudy with Light Rain 69 20.6 68 20 96 96 Calm 30.09 1019 5 8 0.21 5.33
8:53 pm 20:53 Mostly Cloudy with Light Rain 69 20.6 68 20 96 96 NNE 3 6 30.08 1019 5 8 0.21 5.33
9:53 pm 21:53 Partly Cloudy with Mist and Fog 68 20 67 19.4 96 96 E 3 6 30.08 1019 6 10 0.01 0.13
10:53 pm 22:53 Partly Cloudy with Mist and Fog 67 19.4 66 18.9 97 97 Calm 30.09 1019 6 10 0.00 0.00
11:53 pm 23:53 Partly Cloudy with Mist and Fog 66 18.9 65 18.3 96 96 NNW 3 6 30.09 1019 5 8 0.00 0.00

Powered by AerisWeather